Copper Harbor, MI

6:14 AM EDT on June 29, 2017 (GMT -0400)
Copper Harbor

Weather History for KP59 - November, 2012

Change the Weather History Date:

Thursday, November 8, 2012

  Actual Average Record
Temperature  
Mean Temperature 42 °F -  
Max Temperature 46 °F 40 °F 60 °F (1999)
Min Temperature 37 °F 30 °F 21 °F (2003)
Degree Days  
Heating Degree Days 24    
Moisture  
Dew Point 36 °F    
Average Humidity 79    
Maximum Humidity 89    
Minimum Humidity 65    
Precipitation  
Precipitation 0.08 in - - ()
Sea Level Pressure  
Sea Level Pressure 30.01 in    
Wind  
Wind Speed 4 mph (West)    
Max Wind Speed 14 mph    
Max Gust Speed 20 mph    
Averages and records for this station are not official NWS values.
T = Trace of Precipitation, MM = Missing Value Source: NWS Daily Summary

Daily Weather History Graph

Daily Weather History Graph

Search for Another Location

Airport or City:

Trip Planner

Search our weather history database for the weather conditions in past years. The results will help you decide how hot, cold, wet, or windy it might be!

Date:

Astronomy

Nov. 08, 2012 Rise Set
Actual Time 7:46 AM EST 5:23 PM EST
Civil Twilight 7:13 AM EST 5:56 PM EST
Nautical Twilight 6:36 AM EST 6:33 PM EST
Astronomical Twilight 6:00 AM EST 7:09 PM EST
Moon 1:17 AM EST (11/8) 2:25 PM EST (11/8)
Length of Visible Light 10h 42m
Length of Day
9h 36m
Waning Crescent, 33% of the Moon is Illuminated
Nov 8
Waning Crescent
Nov 13
New
Nov 20
First Quarter
Nov 28
Full
Dec 6
Last Quarter

Hourly Weather History & Observations

Time (EST) Temp. Windchill Dew Point Humidity Pressure Visibility Wind Dir Wind Speed Gust Speed Precip Events Conditions
12:51 AM 39.0 °F - 35.1 °F 86% 30.08 in - Calm Calm - N/A   Unknown
1:51 AM 39.0 °F 36.8 °F 35.1 °F 86% 30.08 in - Variable 3.5 mph - N/A   Unknown
2:51 AM 39.0 °F - 35.1 °F 86% 30.09 in - Calm Calm - N/A   Unknown
3:51 AM 39.0 °F - 35.1 °F 86% 30.09 in - Calm Calm - N/A   Unknown
4:51 AM 37.9 °F 34.4 °F 35.1 °F 89% 30.08 in - WSW 4.6 mph - N/A   Unknown
5:51 AM 39.0 °F 35.7 °F 35.1 °F 86% 30.08 in - WSW 4.6 mph - N/A   Unknown
6:51 AM 39.0 °F 34.8 °F 35.1 °F 86% 30.07 in - WSW 5.8 mph - N/A   Unknown
7:51 AM 39.0 °F 34.0 °F 34.0 °F 82% 30.04 in - SW 6.9 mph - N/A   Unknown
8:51 AM 37.9 °F 34.4 °F 35.1 °F 89% 30.05 in - WSW 4.6 mph - 0.02 in   Unknown
9:51 AM 39.0 °F - 36.0 °F 89% 30.04 in - Calm Calm - 0.06 in   Unknown
10:51 AM 42.1 °F 37.1 °F 35.1 °F 76% 30.02 in - WSW 8.1 mph - N/A   Unknown
11:51 AM 43.0 °F 40.3 °F 35.1 °F 74% 30.00 in - Variable 4.6 mph 17.3 mph N/A   Unknown
12:51 PM 45.0 °F 42.6 °F 34.0 °F 65% 29.98 in - Variable 4.6 mph - N/A   Unknown
1:51 PM 45.0 °F 39.3 °F 34.0 °F 65% 29.92 in - WSW 11.5 mph 19.6 mph N/A   Unknown
2:51 PM 46.0 °F 41.9 °F 35.1 °F 66% 29.90 in - SW 8.1 mph 18.4 mph N/A   Unknown
3:51 PM 46.0 °F 40.6 °F 35.1 °F 66% 29.89 in - WSW 11.5 mph 17.3 mph N/A   Unknown
4:51 PM 45.0 °F 42.6 °F 35.1 °F 68% 29.91 in - WSW 4.6 mph - N/A   Unknown
5:51 PM 44.1 °F 42.5 °F 37.0 °F 76% 29.94 in - Variable 3.5 mph - N/A   Unknown
6:51 PM 43.0 °F 41.3 °F 37.0 °F 80% 29.97 in - NNW 3.5 mph - N/A   Unknown
7:51 PM 44.1 °F - 37.0 °F 76% 29.97 in - Calm Calm - N/A   Unknown
8:51 PM 44.1 °F 38.1 °F 37.9 °F 79% 29.98 in - NNW 11.5 mph - N/A   Unknown
9:51 PM 44.1 °F 38.1 °F 39.0 °F 82% 30.00 in - NNW 11.5 mph - N/A   Unknown
10:51 PM 44.1 °F 37.4 °F 39.9 °F 85% 30.01 in - North 13.8 mph - N/A   Unknown
11:51 PM 44.1 °F 37.7 °F 37.9 °F 79% 30.03 in - NNE 12.7 mph - N/A   Unknown